Orbital Elements at Epoch 2459200.5 (2020-Dec-17.0) TDB
Reference: JPL 17 (heliocentric ecliptic J2000)
Element | Value | Uncertainty (1-sigma) | Units |
e | .1478235639756116 | 5.161e-08 | |
a | 2.582732214840237 | 1.5267e-08 | au |
q | 2.200943534047928 | 1.2727e-07 | au |
i | 1.842286138320757 | 4.1553e-06 | deg |
node | 108.5282277950128 | 0.00013106 | deg |
peri | 217.8891317399721 | 0.00013216 | deg |
M | 237.7183990048374 | 2.0916e-05 | deg |
tp | 2459715.463101372013 (2022-May-15.96310137) | 9.0718e-05 | TDB |
period | 1516.06386394351 4.15 | 1.3443e-05 3.68e-08 | d yr |
n | .2374570152101547 | 2.1055e-09 | deg/d |
Q | 2.964520895632546 | 1.7524e-08 | au |
|
| | Orbit Determination Parameters
Additional Information
|